| time (UTC) | temp C | wind direction | speed KPH | gust KPH | rain 1hr cm | rain 24hr cm | rain mn cm | humidity % | barometer mb |
| 20260508200028 | 19 | 60 | 3.2 | 9.7 | 0.05 | 0.05 | 0.05 | 84 | 1014.7 |
| 20260508194520 | 20 | 303 | 1.6 | 6.4 | 0.00 | 0.00 | 0.00 | 82 | 1015.3 |
| 20260508193021 | 20 | 325 | 3.2 | 8.0 | 0.00 | 0.00 | 0.00 | 81 | 1015.3 |
| 20260508191531 | 20 | 327 | 1.6 | 9.7 | 0.00 | 0.00 | 0.00 | 80 | 1015.1 |
| 20260508190030 | 20 | 333 | 0.0 | 6.4 | 0.00 | 0.00 | 0.00 | 80 | 1014.5 |
| 20260508184524 | 21 | 11 | 1.6 | 9.7 | 0.00 | 0.00 | 0.00 | 79 | 1014.2 |
| 20260508183020 | 21 | 22 | 1.6 | 6.4 | 0.00 | 0.00 | 0.00 | 79 | 1013.6 |
| 20260508181525 | 21 | 135 | 0.0 | 6.4 | 0.00 | 0.00 | 0.00 | 79 | 1013.6 |
| 20260508180028 | 22 | 195 | 0.0 | 1.6 | 0.00 | 0.00 | 0.00 | 78 | 1013.9 |
| 20260508174530 | 22 | 27 | 1.6 | 3.2 | 0.00 | 0.00 | 0.00 | 77 | 1014.0 |
| 20260508173019 | 22 | 90 | 0.0 | 3.2 | 0.00 | 0.00 | 0.00 | 77 | 1014.5 |
| 20260508171531 | 23 | 355 | 0.0 | 4.8 | 0.00 | 0.00 | 0.00 | 75 | 1014.5 |
| 20260508170027 | 23 | 101 | 3.2 | 9.7 | 0.00 | 0.00 | 0.00 | 74 | 1014.1 |
| 20260508164510 | 22 | 59 | 0.0 | 3.2 | 0.00 | 0.00 | 0.00 | 76 | 1014.2 |
| 20260508163013 | 22 | 107 | 0.0 | 4.8 | 0.00 | 0.00 | 0.00 | 76 | 1014.5 |
| 20260508161530 | 23 | 86 | 0.0 | 3.2 | 0.00 | 0.10 | 0.00 | 75 | 1014.7 |
| 20260508160027 | 23 | 143 | 0.0 | 1.6 | 0.00 | 0.10 | 0.00 | 73 | 1014.8 |
| 20260508154526 | 24 | 120 | 1.6 | 6.4 | 0.00 | 0.10 | 0.00 | 71 | 1014.7 |
| 20260508153011 | 24 | 118 | 3.2 | 6.4 | 0.00 | 0.10 | 0.00 | 71 | 1014.4 |
| 20260508151515 | 23 | 36 | 1.6 | 4.8 | 0.00 | 0.13 | 0.00 | 73 | 1014.4 |
| 20260508150023 | 22 | 153 | 1.6 | 9.7 | 0.00 | 0.13 | 0.00 | 76 | 1014.5 |
| 20260508144537 | 22 | 79 | 1.6 | 3.2 | 0.00 | 0.13 | 0.00 | 75 | 1014.7 |
| 20260508143036 | 21 | 211 | 0.0 | 6.4 | 0.00 | 0.13 | 0.00 | 76 | 1014.7 |
| 20260508141520 | 20 | 18 | 1.6 | 9.7 | 0.00 | 0.13 | 0.00 | 78 | 1014.7 |
| 20260508140019 | 19 | 60 | 1.6 | 6.4 | 0.00 | 0.13 | 0.00 | 80 | 1014.9 |
| 20260508134522 | 19 | 259 | 0.0 | 3.2 | 0.00 | 0.13 | 0.00 | 81 | 1015.1 |
| 20260508133028 | 18 | 353 | 0.0 | 1.6 | 0.00 | 0.15 | 0.00 | 81 | 1015.2 |
| 20260508131529 | 18 | 113 | 0.0 | 4.8 | 0.00 | 0.15 | 0.00 | 82 | 1015.0 |
| 20260508130017 | 18 | 349 | 0.0 | 4.8 | 0.00 | 0.15 | 0.00 | 81 | 1015.0 |
| 20260508124518 | 18 | 122 | 0.0 | 6.4 | 0.00 | 0.15 | 0.00 | 82 | 1015.0 |
| 20260508123028 | 18 | 104 | 1.6 | 4.8 | 0.00 | 0.15 | 0.00 | 82 | 1015.1 |
| 20260508121526 | 18 | 41 | 1.6 | 6.4 | 0.00 | 0.15 | 0.00 | 82 | 1015.1 |
| 20260508120027 | 18 | 143 | 0.0 | 3.2 | 0.00 | 0.15 | 0.00 | 82 | 1015.2 |
| 20260508114529 | 18 | 163 | 1.6 | 6.4 | 0.00 | 0.15 | 0.00 | 81 | 1015.2 |
| 20260508113030 | 18 | 48 | 3.2 | 8.0 | 0.00 | 0.15 | 0.00 | 80 | 1015.3 |
| 20260508111526 | 19 | 288 | 0.0 | 3.2 | 0.00 | 0.15 | 0.00 | 79 | 1015.5 |
| 20260508110027 | 19 | 309 | 0.0 | 1.6 | 0.00 | 0.15 | 0.00 | 79 | 1015.1 |
| 20260508104532 | 18 | 262 | 0.0 | 1.6 | 0.00 | 0.15 | 0.00 | 79 | 1014.6 |
| 20260508103017 | 18 | 51 | 0.0 | 1.6 | 0.00 | 0.15 | 0.00 | 80 | 1014.1 |
| 20260508101530 | 18 | 29 | 1.6 | 3.2 | 0.00 | 0.15 | 0.00 | 80 | 1013.8 |
| 20260508100034 | 18 | 123 | 0.0 | 4.8 | 0.00 | 0.15 | 0.00 | 80 | 1013.5 |
| 20260508094527 | 18 | 150 | 0.0 | 4.8 | 0.00 | 0.15 | 0.00 | 80 | 1013.7 |
| 20260508093028 | 18 | 319 | 0.0 | 3.2 | 0.00 | 0.15 | 0.00 | 80 | 1013.8 |
| 20260508091521 | 18 | 83 | 0.0 | 1.6 | 0.00 | 0.15 | 0.00 | 81 | 1013.7 |
| 20260508090030 | 18 | 354 | 1.6 | 4.8 | 0.00 | 0.15 | 0.00 | 81 | 1013.9 |
| 20260508084526 | 18 | 244 | 0.0 | 3.2 | 0.00 | 0.15 | 0.00 | 81 | 1013.7 |
| 20260508083037 | 18 | 257 | 0.0 | 1.6 | 0.00 | 0.15 | 0.00 | 81 | 1014.0 |
| 20260508081516 | 18 | 17 | 0.0 | 4.8 | 0.00 | 0.15 | 0.00 | 82 | 1013.8 |
| 20260508080020 | 18 | 345 | 0.0 | 3.2 | 0.00 | 0.15 | 0.00 | 82 | 1014.1 |
| 20260508074514 | 18 | 54 | 1.6 | 8.0 | 0.00 | 0.15 | 0.00 | 82 | 1013.8 |
| 20260508073008 | 18 | 347 | 1.6 | 4.8 | 0.00 | 0.15 | 0.00 | 82 | 1013.8 |
| 20260508050018 | 20 | 72 | 0.0 | 3.2 | 0.00 | 0.15 | 0.00 | 81 | 1014.6 |
| 20260508044523 | 20 | 290 | 0.0 | 4.8 | 0.00 | 0.15 | 0.15 | 80 | 1014.7 |
| 20260508043030 | 20 | 266 | 1.6 | 3.2 | 0.00 | 0.15 | 0.15 | 79 | 1014.7 |
| 20260508041526 | 21 | 282 | 0.0 | 3.2 | 0.00 | 0.15 | 0.15 | 79 | 1015.1 |
| 20260508040010 | 21 | 299 | 0.0 | 4.8 | 0.00 | 0.15 | 0.15 | 79 | 1015.1 |
| 20260508034523 | 21 | 138 | 0.0 | 4.8 | 0.00 | 0.15 | 0.15 | 79 | 1015.3 |
| 20260508033020 | 21 | 327 | 1.6 | 3.2 | 0.00 | 0.15 | 0.15 | 78 | 1015.0 |
| 20260508031526 | 21 | 256 | 0.0 | 3.2 | 0.00 | 0.15 | 0.15 | 78 | 1015.1 |
| 20260508030005 | 21 | 275 | 0.0 | 3.2 | 0.00 | 0.15 | 0.15 | 78 | 1014.9 |
| 20260508024513 | 21 | 57 | 0.0 | 3.2 | 0.00 | 0.15 | 0.15 | 78 | 1015.1 |
| 20260508023015 | 22 | 347 | 1.6 | 3.2 | 0.00 | 0.15 | 0.15 | 78 | 1014.9 |
| 20260508021521 | 22 | 87 | 0.0 | 3.2 | 0.00 | 0.15 | 0.15 | 78 | 1014.8 |
| 20260508020024 | 22 | 290 | 1.6 | 4.8 | 0.00 | 0.15 | 0.15 | 77 | 1014.6 |
| 20260508014510 | 22 | 304 | 1.6 | 3.2 | 0.00 | 0.15 | 0.15 | 77 | 1014.5 |
| 20260508013015 | 22 | 295 | 0.0 | 3.2 | 0.00 | 0.15 | 0.15 | 77 | 1014.3 |
| 20260508011520 | 23 | 311 | 0.0 | 4.8 | 0.00 | 0.15 | 0.15 | 77 | 1014.0 |
| 20260508010029 | 23 | 313 | 0.0 | 1.6 | 0.00 | 0.15 | 0.15 | 77 | 1013.6 |
| 20260508004536 | 23 | 313 | 0.0 | 3.2 | 0.00 | 0.15 | 0.15 | 76 | 1013.5 |
| 20260508003008 | 23 | 304 | 1.6 | 3.2 | 0.00 | 0.15 | 0.15 | 75 | 1013.4 |
| 20260508001515 | 24 | 297 | 0.0 | 4.8 | 0.00 | 0.15 | 0.15 | 75 | 1013.6 |
| 20260508000020 | 24 | 328 | 1.6 | 6.4 | 0.00 | 0.15 | 0.15 | 74 | 1013.6 |
| 20260507234530 | 24 | 339 | 0.0 | 4.8 | 0.00 | 0.15 | 0.15 | 74 | 1013.6 |
| 20260507233033 | 25 | 37 | 1.6 | 4.8 | 0.00 | 0.15 | 0.15 | 73 | 1013.3 |
| 20260507231513 | 25 | 302 | 0.0 | 6.4 | 0.00 | 0.15 | 0.15 | 73 | 1013.5 |
| 20260507230019 | 25 | 256 | 0.0 | 6.4 | 0.00 | 0.15 | 0.15 | 73 | 1013.3 |
| 20260507224525 | 25 | 309 | 0.0 | 3.2 | 0.00 | 0.15 | 0.15 | 72 | 1013.3 |
| 20260507223012 | 25 | 328 | 0.0 | 4.8 | 0.00 | 0.15 | 0.15 | 72 | 1013.2 |
| 20260507221509 | 26 | 342 | 0.0 | 1.6 | 0.00 | 0.15 | 0.15 | 72 | 1013.1 |
| 20260507220014 | 26 | 303 | 1.6 | 8.0 | 0.00 | 0.15 | 0.15 | 72 | 1013.0 |
| 20260507214524 | 26 | 319 | 0.0 | 3.2 | 0.00 | 0.15 | 0.15 | 71 | 1012.9 |
| 20260507213023 | 26 | 292 | 0.0 | 1.6 | 0.00 | 0.15 | 0.15 | 71 | 1013.1 |
| 20260507211510 | 26 | 302 | 1.6 | 6.4 | 0.00 | 0.15 | 0.15 | 70 | 1013.1 |
| 20260507210011 | 26 | 50 | 0.0 | 1.6 | 0.00 | 0.15 | 0.15 | 70 | 1013.0 |
| 20260507204514 | 26 | 67 | 1.6 | 6.4 | 0.00 | 0.15 | 0.15 | 70 | 1013.0 |
| 20260507203020 | 26 | 1 | 0.0 | 3.2 | 0.00 | 0.15 | 0.15 | 70 | 1013.0 |
| 20260507201526 | 26 | 322 | 0.0 | 3.2 | 0.00 | 0.15 | 0.15 | 70 | 1013.1 |